QPF
0.00 0.00 0.01 0.01 0.00 0.00 0.00 0.00 0.00 0.00 0.01 0.02 0.02 0.02 0.01 0.01 0.00 0.00 0.00 0.00 0.00 0.01 0.02 0.03 0.03 0.03 0.04 0.03 0.02 0.01 0.01 0.00 0.00 0.00 0.00 0.00 0.00 0.00 0.00 0.00 0.00 0.00 0.01
0.00 0.00 0.01 0.00 0.00 0.00 0.00 0.00 0.00 0.00 0.01 0.01 0.01 0.01 0.01 0.01 0.00 0.00 0.00 0.00 0.00 0.00 0.01 0.03 0.04 0.04 0.04 0.03 0.02 0.01 0.00 0.00 0.00 0.00 0.00 0.00 0.00 0.00 0.00 0.00 0.00 0.00 0.00
0.00 0.00 0.01 0.00 0.00 0.00 0.00 0.00 0.00 0.00 0.00 0.00 0.00 0.01 0.01 0.00 0.00 0.00 0.00 0.00 0.00 0.00 0.01 0.01 0.02 0.03 0.03 0.03 0.01 0.01 0.00 0.00 0.00 0.00 0.00 0.00 0.00 0.00 0.00 0.00 0.00 0.00 0.00
0.00 0.00 0.00 0.00 0.00 0.00 0.00 0.00 0.00 0.00 0.00 0.00 0.00 0.00 0.00 0.00 0.00 0.00 0.00 0.00 0.00 0.00 0.00 0.01 0.01 0.01 0.01 0.01 0.00 0.00 0.00 0.00 0.00 0.00 0.00 0.00 0.00 0.00 0.00 0.00 0.00 0.00 0.00
0.00 0.00 0.00 0.00 0.00 0.00 0.00 0.00 0.00 0.00 0.00 0.00 0.00 0.00 0.00 0.00 0.00 0.00 0.00 0.00 0.00 0.00 0.00 0.00 0.00 0.00 0.00 0.00 0.00 0.00 0.00 0.00 0.00 0.00 0.00 0.00 0.00 0.00 0.00 0.00 0.01 0.01 0.01
0.00 0.00 0.00 0.00 0.00 0.00 0.00 0.00 0.00 0.00 0.00 0.00 0.00 0.00 0.00 0.00 0.00 0.00 0.00 0.00 0.00 0.00 0.00 0.00 0.00 0.00 0.00 0.00 0.00 0.00 0.00 0.00 0.00 0.00 0.00 0.00 0.00 0.00 0.00 0.00 0.00 0.01 0.01
0.00 0.00 0.01 0.01 0.01 0.00 0.00 0.00 0.00 0.00 0.00 0.00 0.00 0.00 0.00 0.00 0.00 0.00 0.00 0.00 0.00 0.00 0.00 0.00 0.00 0.00 0.00 0.00 0.00 0.00 0.00 0.00 0.00 0.00 0.00 0.00 0.00 0.00 0.00 0.00 0.00 0.00 0.00
0.00 0.00 0.01 0.01 0.01 0.00 0.00 0.00 0.00 0.00 0.00 0.00 0.00 0.00 0.00 0.00 0.00 0.00 0.00 0.00 0.00 0.00 0.00 0.00 0.00 0.00 0.00 0.00 0.00 0.00 0.00 0.00 0.00 0.00 0.00 0.00 0.00 0.00 0.00 0.01 0.01 0.01 0.02
0.00 0.00 0.01 0.01 0.01 0.01 0.00 0.00 0.00 0.00 0.00 0.00 0.00 0.00 0.00 0.00 0.00 0.00 0.00 0.00 0.00 0.00 0.00 0.00 0.00 0.00 0.00 0.00 0.00 0.00 0.00 0.00 0.00 0.00 0.00 0.00 0.00 0.00 0.01 0.03 0.04 0.05 0.05
0.00 0.00 0.00 0.01 0.01 0.01 0.01 0.00 0.00 0.00 0.00 0.00 0.00 0.00 0.00 0.00 0.00 0.00 0.00 0.00 0.00 0.00 0.00 0.00 0.00 0.00 0.00 0.00 0.00 0.00 0.00 0.00 0.00 0.00 0.00 0.00 0.00 0.00 0.01 0.03 0.04 0.05 0.06
0.00 0.00 0.00 0.01 0.01 0.01 0.01 0.01 0.00 0.00 0.00 0.00 0.00 0.00 0.00 0.00 0.00 0.00 0.00 0.00 0.00 0.00 0.00 0.00 0.00 0.00 0.00 0.00 0.00 0.00 0.00 0.00 0.00 0.00 0.00 0.00 0.00 0.00 0.01 0.02 0.02 0.02 0.03
0.00 0.00 0.00 0.00 0.01 0.01 0.01 0.01 0.01 0.00 0.00 0.00 0.00 0.00 0.00 0.00 0.00 0.00 0.00 0.00 0.00 0.00 0.00 0.00 0.00 0.00 0.00 0.00 0.00 0.00 0.00 0.00 0.00 0.00 0.00 0.00 0.00 0.00 0.00 0.00 0.00 0.00 0.01
0.00 0.00 0.00 0.00 0.00 0.01 0.01 0.01 0.01 0.00 0.00 0.00 0.00 0.00 0.00 0.00 0.00 0.00 0.00 0.00 0.00 0.00 0.00 0.00 0.00 0.00 0.00 0.00 0.00 0.00 0.00 0.00 0.00 0.00 0.00 0.00 0.00 0.00 0.00 0.00 0.00 0.00 0.00
0.00 0.00 0.00 0.00 0.00 0.00 0.00 0.00 0.00 0.00 0.00 0.00 0.00 0.00 0.00 0.00 0.00 0.00 0.00 0.00 0.00 0.00 0.00 0.00 0.00 0.00 0.00 0.00 0.00 0.00 0.00 0.00 0.00 0.00 0.00 0.00 0.00 0.00 0.00 0.00 0.00 0.00 0.00
0.00 0.00 0.00 0.00 0.00 0.00 0.00 0.00 0.00 0.00 0.00 0.00 0.00 0.00 0.00 0.00 0.00 0.00 0.00 0.00 0.00 0.00 0.00 0.00 0.00 0.00 0.00 0.00 0.00 0.00 0.00 0.00 0.00 0.00 0.00 0.00 0.00 0.00 0.00 0.00 0.00 0.00 0.00
0.00 0.00 0.00 0.00 0.00 0.00 0.00 0.00 0.00 0.00 0.00 0.00 0.00 0.00 0.00 0.00 0.00 0.00 0.00 0.00 0.00 0.00 0.00 0.00 0.00 0.00 0.00 0.00 0.00 0.00 0.00 0.00 0.00 0.00 0.00 0.00 0.00 0.00 0.00 0.00 0.00 0.00 0.00
0.00 0.00 0.00 0.00 0.00 0.00 0.00 0.00 0.01 0.01 0.01 0.01 0.01 0.00 0.00 0.00 0.00 0.00 0.00 0.00 0.00 0.00 0.00 0.00 0.00 0.00 0.00 0.00 0.00 0.00 0.00 0.00 0.00 0.00 0.00 0.00 0.00 0.00 0.00 0.00 0.00 0.00 0.00
0.00 0.00 0.00 0.00 0.00 0.00 0.01 0.01 0.02 0.03 0.03 0.02 0.02 0.01 0.01 0.00 0.00 0.00 0.00 0.00 0.00 0.00 0.00 0.00 0.00 0.00 0.00 0.00 0.00 0.00 0.00 0.00 0.00 0.00 0.00 0.00 0.00 0.00 0.00 0.00 0.00 0.00 0.00
0.00 0.00 0.00 0.00 0.00 0.00 0.01 0.03 0.03 0.04 0.06 0.05 0.05 0.03 0.02 0.01 0.01 0.00 0.00 0.00 0.00 0.00 0.00 0.00 0.00 0.00 0.00 0.00 0.00 0.00 0.00 0.00 0.00 0.00 0.00 0.00 0.00 0.00 0.00 0.00 0.00 0.00 0.00
0.00 0.00 0.00 0.00 0.00 0.00 0.01 0.02 0.03 0.05 0.07 0.08 0.08 0.07 0.04 0.02 0.01 0.00 0.00 0.00 0.00 0.00 0.00 0.00 0.00 0.00 0.00 0.00 0.00 0.00 0.00 0.00 0.00 0.00 0.00 0.00 0.00 0.00 0.00 0.00 0.00 0.00 0.00
0.00 0.00 0.00 0.00 0.00 0.00 0.00 0.01 0.03 0.05 0.07 0.08 0.09 0.08 0.07 0.04 0.02 0.01 0.00 0.00 0.00 0.00 0.00 0.00 0.00 0.00 0.00 0.00 0.00 0.00 0.00 0.00 0.00 0.00 0.00 0.00 0.00 0.00 0.00 0.00 0.00 0.00 0.00
0.00 0.00 0.00 0.00 0.00 0.00 0.00 0.02 0.04 0.07 0.08 0.09 0.09 0.08 0.06 0.04 0.03 0.01 0.00 0.00 0.00 0.00 0.00 0.00 0.00 0.00 0.00 0.00 0.00 0.00 0.00 0.00 0.00 0.00 0.00 0.00 0.00 0.00 0.00 0.00 0.00 0.00 0.00
0.00 0.00 0.00 0.00 0.00 0.00 0.00 0.01 0.02 0.04 0.06 0.06 0.06 0.06 0.04 0.03 0.02 0.01 0.00 0.00 0.00 0.00 0.00 0.00 0.00 0.00 0.00 0.00 0.00 0.00 0.00 0.00 0.00 0.00 0.00 0.00 0.00 0.00 0.00 0.00 0.00 0.00 0.00
0.00 0.00 0.00 0.00 0.00 0.00 0.00 0.01 0.02 0.04 0.05 0.05 0.05 0.04 0.03 0.02 0.01 0.01 0.00 0.00 0.00 0.00 0.00 0.00 0.00 0.00 0.00 0.00 0.00 0.00 0.00 0.00 0.00 0.00 0.00 0.00 0.00 0.00 0.00 0.00 0.00 0.00 0.00
0.00 0.00 0.00 0.00 0.00 0.00 0.00 0.01 0.02 0.04 0.05 0.05 0.03 0.02 0.02 0.01 0.00 0.00 0.00 0.00 0.00 0.00 0.00 0.00 0.00 0.00 0.00 0.00 0.00 0.00 0.00 0.00 0.00 0.00 0.00 0.00 0.00 0.00 0.00 0.00 0.00 0.00 0.00
0.00 0.00 0.00 0.00 0.00 0.00 0.00 0.01 0.02 0.04 0.05 0.04 0.02 0.02 0.01 0.01 0.00 0.00 0.00 0.00 0.00 0.00 0.00 0.00 0.00 0.00 0.00 0.00 0.00 0.00 0.00 0.00 0.00 0.00 0.00 0.00 0.00 0.00 0.00 0.00 0.00 0.00 0.00
MSLP
1011.05 1011.23 1011.52 1011.88 1012.28 1012.67 1013.00 1013.25 1013.43 1013.57 1013.69 1013.85 1014.06 1014.34 1014.66 1014.98 1015.26 1015.45 1015.52 1015.48 1015.35 1015.19 1015.03 1014.93 1014.92 1015.01 1015.16 1015.36 1015.54 1015.69 1015.78 1015.81 1015.79 1015.74 1015.69 1015.65 1015.63 1015.61 1015.60 1015.58 1015.54 1015.48 1015.43
1010.93 1011.17 1011.51 1011.94 1012.39 1012.82 1013.18 1013.45 1013.65 1013.79 1013.91 1014.07 1014.28 1014.57 1014.89 1015.23 1015.52 1015.72 1015.80 1015.76 1015.64 1015.47 1015.31 1015.21 1015.20 1015.28 1015.42 1015.60 1015.77 1015.89 1015.95 1015.96 1015.92 1015.86 1015.80 1015.77 1015.75 1015.75 1015.74 1015.72 1015.67 1015.60 1015.52
1010.75 1011.05 1011.46 1011.95 1012.46 1012.93 1013.33 1013.62 1013.83 1013.97 1014.09 1014.25 1014.46 1014.74 1015.07 1015.41 1015.71 1015.93 1016.03 1016.01 1015.90 1015.75 1015.61 1015.52 1015.51 1015.58 1015.72 1015.87 1016.01 1016.09 1016.12 1016.09 1016.03 1015.95 1015.89 1015.85 1015.84 1015.84 1015.84 1015.81 1015.76 1015.67 1015.57
1010.57 1010.94 1011.41 1011.95 1012.51 1013.02 1013.44 1013.76 1013.98 1014.12 1014.24 1014.38 1014.59 1014.86 1015.19 1015.53 1015.84 1016.07 1016.19 1016.20 1016.12 1016.01 1015.89 1015.83 1015.83 1015.90 1016.01 1016.14 1016.24 1016.28 1016.27 1016.20 1016.11 1016.01 1015.93 1015.89 1015.87 1015.87 1015.86 1015.83 1015.77 1015.67 1015.56
1010.45 1010.87 1011.39 1011.98 1012.57 1013.11 1013.55 1013.88 1014.10 1014.24 1014.36 1014.49 1014.68 1014.94 1015.25 1015.59 1015.90 1016.14 1016.28 1016.33 1016.29 1016.22 1016.14 1016.10 1016.12 1016.18 1016.28 1016.37 1016.43 1016.43 1016.38 1016.27 1016.15 1016.02 1015.93 1015.87 1015.84 1015.83 1015.81 1015.78 1015.71 1015.60 1015.47
1010.44 1010.89 1011.44 1012.05 1012.65 1013.20 1013.65 1013.98 1014.20 1014.35 1014.45 1014.58 1014.75 1015.00 1015.29 1015.61 1015.91 1016.16 1016.32 1016.40 1016.40 1016.37 1016.33 1016.32 1016.34 1016.40 1016.47 1016.53 1016.55 1016.51 1016.42 1016.28 1016.13 1015.98 1015.87 1015.79 1015.75 1015.72 1015.69 1015.64 1015.56 1015.46 1015.32
1010.55 1011.01 1011.56 1012.17 1012.76 1013.30 1013.75 1014.08 1014.30 1014.44 1014.55 1014.67 1014.83 1015.05 1015.33 1015.63 1015.92 1016.16 1016.33 1016.42 1016.46 1016.46 1016.45 1016.45 1016.49 1016.54 1016.59 1016.61 1016.59 1016.52 1016.40 1016.23 1016.06 1015.90 1015.77 1015.67 1015.61 1015.57 1015.52 1015.46 1015.37 1015.26 1015.13
1010.74 1011.19 1011.72 1012.30 1012.86 1013.38 1013.81 1014.14 1014.36 1014.52 1014.63 1014.76 1014.92 1015.13 1015.38 1015.66 1015.92 1016.15 1016.32 1016.42 1016.47 1016.49 1016.50 1016.52 1016.55 1016.59 1016.62 1016.61 1016.57 1016.46 1016.32 1016.14 1015.96 1015.80 1015.66 1015.55 1015.48 1015.41 1015.35 1015.27 1015.17 1015.06 1014.94
1010.96 1011.38 1011.87 1012.40 1012.92 1013.41 1013.82 1014.14 1014.38 1014.55 1014.70 1014.84 1015.01 1015.22 1015.45 1015.70 1015.94 1016.14 1016.30 1016.40 1016.46 1016.49 1016.51 1016.53 1016.56 1016.59 1016.59 1016.56 1016.49 1016.38 1016.22 1016.05 1015.88 1015.72 1015.59 1015.49 1015.40 1015.33 1015.24 1015.15 1015.03 1014.91 1014.78
1011.14 1011.51 1011.95 1012.42 1012.90 1013.34 1013.74 1014.06 1014.32 1014.53 1014.71 1014.88 1015.07 1015.29 1015.51 1015.74 1015.95 1016.13 1016.27 1016.36 1016.42 1016.46 1016.49 1016.52 1016.55 1016.56 1016.55 1016.50 1016.42 1016.30 1016.15 1016.00 1015.85 1015.72 1015.61 1015.52 1015.44 1015.35 1015.25 1015.13 1015.00 1014.86 1014.73
1011.22 1011.54 1011.92 1012.34 1012.76 1013.17 1013.55 1013.88 1014.17 1014.41 1014.64 1014.85 1015.07 1015.30 1015.53 1015.74 1015.93 1016.10 1016.22 1016.31 1016.38 1016.43 1016.47 1016.51 1016.54 1016.54 1016.52 1016.47 1016.38 1016.27 1016.14 1016.02 1015.91 1015.83 1015.76 1015.70 1015.63 1015.54 1015.43 1015.28 1015.12 1014.96 1014.80
1011.16 1011.44 1011.77 1012.13 1012.52 1012.90 1013.26 1013.60 1013.91 1014.20 1014.47 1014.73 1014.98 1015.23 1015.46 1015.68 1015.86 1016.02 1016.15 1016.25 1016.33 1016.41 1016.47 1016.52 1016.56 1016.57 1016.55 1016.49 1016.41 1016.32 1016.22 1016.14 1016.08 1016.05 1016.03 1016.01 1015.96 1015.89 1015.76 1015.60 1015.40 1015.20 1015.02
1010.97 1011.21 1011.50 1011.83 1012.18 1012.54 1012.89 1013.24 1013.57 1013.89 1014.20 1014.50 1014.78 1015.06 1015.31 1015.53 1015.73 1015.90 1016.05 1016.18 1016.30 1016.41 1016.50 1016.59 1016.64 1016.66 1016.64 1016.59 1016.52 1016.44 1016.37 1016.33 1016.33 1016.35 1016.39 1016.42 1016.42 1016.36 1016.23 1016.05 1015.83 1015.59 1015.36
1010.66 1010.88 1011.15 1011.45 1011.78 1012.12 1012.47 1012.82 1013.17 1013.51 1013.85 1014.18 1014.50 1014.80 1015.08 1015.33 1015.56 1015.76 1015.95 1016.13 1016.30 1016.45 1016.59 1016.71 1016.78 1016.82 1016.80 1016.75 1016.68 1016.61 1016.57 1016.57 1016.62 1016.70 1016.80 1016.89 1016.93 1016.90 1016.78 1016.59 1016.34 1016.06 1015.79
1010.26 1010.48 1010.74 1011.04 1011.36 1011.70 1012.04 1012.39 1012.74 1013.10 1013.46 1013.81 1014.16 1014.49 1014.81 1015.10 1015.38 1015.64 1015.89 1016.12 1016.35 1016.56 1016.74 1016.89 1016.98 1017.02 1017.00 1016.95 1016.87 1016.81 1016.78 1016.81 1016.90 1017.03 1017.19 1017.33 1017.42 1017.42 1017.33 1017.14 1016.87 1016.56 1016.24
1009.80 1010.03 1010.30 1010.61 1010.93 1011.28 1011.63 1011.99 1012.35 1012.72 1013.09 1013.47 1013.84 1014.21 1014.57 1014.92 1015.25 1015.58 1015.89 1016.20 1016.48 1016.74 1016.96 1017.13 1017.23 1017.26 1017.23 1017.16 1017.07 1016.99 1016.96 1017.00 1017.11 1017.29 1017.48 1017.67 1017.80 1017.85 1017.78 1017.61 1017.34 1017.01 1016.67
1009.30 1009.53 1009.82 1010.15 1010.50 1010.87 1011.25 1011.63 1012.01 1012.40 1012.79 1013.19 1013.60 1014.01 1014.42 1014.83 1015.23 1015.62 1016.01 1016.37 1016.71 1017.01 1017.25 1017.42 1017.51 1017.52 1017.46 1017.35 1017.24 1017.14 1017.10 1017.13 1017.24 1017.43 1017.65 1017.87 1018.04 1018.13 1018.10 1017.95 1017.69 1017.36 1017.00
1008.75 1008.99 1009.30 1009.67 1010.06 1010.48 1010.90 1011.32 1011.75 1012.17 1012.60 1013.04 1013.49 1013.94 1014.41 1014.87 1015.34 1015.80 1016.24 1016.65 1017.02 1017.33 1017.57 1017.73 1017.79 1017.77 1017.67 1017.53 1017.38 1017.25 1017.18 1017.19 1017.29 1017.47 1017.70 1017.93 1018.12 1018.24 1018.24 1018.13 1017.90 1017.58 1017.22
1008.14 1008.40 1008.73 1009.14 1009.59 1010.07 1010.57 1011.06 1011.55 1012.04 1012.53 1013.02 1013.52 1014.03 1014.55 1015.08 1015.60 1016.11 1016.59 1017.03 1017.40 1017.71 1017.93 1018.05 1018.08 1018.02 1017.88 1017.70 1017.51 1017.35 1017.25 1017.23 1017.30 1017.45 1017.66 1017.88 1018.07 1018.19 1018.22 1018.14 1017.95 1017.66 1017.31
1007.49 1007.74 1008.10 1008.55 1009.07 1009.64 1010.23 1010.83 1011.42 1012.00 1012.57 1013.13 1013.69 1014.26 1014.84 1015.41 1015.97 1016.51 1017.01 1017.45 1017.82 1018.10 1018.28 1018.37 1018.35 1018.25 1018.09 1017.88 1017.67 1017.49 1017.35 1017.30 1017.32 1017.42 1017.58 1017.76 1017.93 1018.04 1018.08 1018.02 1017.85 1017.60 1017.28
1006.80 1007.04 1007.41 1007.91 1008.51 1009.18 1009.89 1010.61 1011.33 1012.02 1012.69 1013.34 1013.98 1014.60 1015.22 1015.83 1016.41 1016.96 1017.45 1017.88 1018.22 1018.46 1018.61 1018.66 1018.62 1018.50 1018.32 1018.11 1017.89 1017.69 1017.54 1017.44 1017.41 1017.45 1017.53 1017.65 1017.75 1017.83 1017.85 1017.80 1017.66 1017.44 1017.16
1006.10 1006.32 1006.70 1007.24 1007.92 1008.70 1009.54 1010.40 1011.26 1012.08 1012.86 1013.60 1014.31 1014.99 1015.64 1016.26 1016.85 1017.39 1017.87 1018.26 1018.57 1018.78 1018.89 1018.92 1018.87 1018.75 1018.59 1018.40 1018.20 1018.00 1017.84 1017.71 1017.62 1017.57 1017.57 1017.58 1017.61 1017.62 1017.60 1017.53 1017.40 1017.21 1016.95
1005.40 1005.61 1006.00 1006.58 1007.33 1008.22 1009.19 1010.19 1011.19 1012.14 1013.04 1013.87 1014.63 1015.35 1016.02 1016.65 1017.23 1017.75 1018.20 1018.56 1018.84 1019.03 1019.13 1019.15 1019.11 1019.03 1018.90 1018.76 1018.59 1018.43 1018.26 1018.10 1017.95 1017.81 1017.70 1017.60 1017.51 1017.43 1017.34 1017.23 1017.09 1016.92 1016.69
1004.75 1004.94 1005.34 1005.96 1006.78 1007.76 1008.85 1009.99 1011.11 1012.18 1013.18 1014.08 1014.90 1015.64 1016.32 1016.94 1017.50 1018.00 1018.42 1018.77 1019.03 1019.21 1019.31 1019.36 1019.36 1019.32 1019.26 1019.17 1019.06 1018.93 1018.77 1018.58 1018.37 1018.15 1017.92 1017.69 1017.48 1017.28 1017.10 1016.93 1016.77 1016.59 1016.37
1004.14 1004.34 1004.76 1005.42 1006.30 1007.36 1008.55 1009.79 1011.02 1012.19 1013.25 1014.21 1015.07 1015.82 1016.50 1017.11 1017.66 1018.14 1018.55 1018.88 1019.14 1019.33 1019.46 1019.55 1019.60 1019.62 1019.62 1019.60 1019.55 1019.45 1019.31 1019.10 1018.83 1018.52 1018.18 1017.83 1017.48 1017.17 1016.88 1016.64 1016.42 1016.22 1016.01
1003.59 1003.82 1004.27 1004.97 1005.91 1007.04 1008.30 1009.62 1010.92 1012.15 1013.27 1014.26 1015.13 1015.90 1016.58 1017.18 1017.72 1018.19 1018.60 1018.94 1019.22 1019.43 1019.60 1019.72 1019.82 1019.90 1019.97 1020.00 1020.00 1019.94 1019.80 1019.57 1019.26 1018.88 1018.43 1017.97 1017.50 1017.07 1016.68 1016.34 1016.06 1015.81 1015.58
Thickness
5763 5761 5753 5751 5749 5747 5745 5743 5742 5740 5738 5736 5734 5731 5729 5727 5725 5723 5722 5722 5722 5723 5724 5725 5725 5724 5724 5723 5721 5719 5718 5717 5716 5715 5715 5716 5716 5717 5717 5717 5717 5720 5716
5763 5757 5749 5747 5744 5742 5740 5739 5737 5735 5733 5731 5730 5727 5725 5723 5721 5720 5719 5718 5718 5719 5719 5720 5720 5720 5720 5718 5716 5714 5713 5712 5711 5711 5711 5712 5712 5712 5712 5712 5712 5714 5712
5759 5753 5746 5742 5740 5737 5735 5733 5732 5730 5729 5727 5725 5723 5721 5719 5717 5716 5715 5714 5714 5713 5714 5714 5714 5714 5714 5712 5711 5710 5708 5707 5707 5706 5708 5711 5710 5707 5707 5708 5708 5707 5707
5754 5749 5744 5737 5735 5732 5730 5728 5727 5725 5724 5723 5721 5719 5717 5715 5713 5712 5711 5710 5709 5708 5708 5708 5708 5708 5708 5707 5706 5705 5704 5703 5702 5702 5706 5707 5706 5703 5703 5703 5704 5704 5703
5749 5745 5739 5733 5730 5727 5725 5723 5722 5721 5719 5718 5717 5715 5713 5711 5709 5707 5706 5705 5704 5703 5703 5703 5703 5703 5702 5702 5701 5700 5700 5699 5698 5700 5702 5701 5701 5698 5697 5698 5699 5699 5699
5745 5741 5735 5729 5725 5723 5720 5719 5717 5716 5715 5713 5712 5710 5709 5707 5705 5703 5701 5700 5699 5699 5699 5699 5699 5698 5698 5697 5696 5696 5695 5695 5695 5698 5698 5697 5696 5693 5693 5694 5694 5695 5694
5740 5737 5731 5724 5721 5718 5716 5714 5713 5711 5710 5709 5707 5706 5704 5703 5701 5699 5697 5696 5695 5695 5695 5694 5694 5694 5693 5693 5692 5691 5691 5690 5692 5694 5693 5692 5691 5688 5688 5689 5690 5690 5690
5736 5732 5726 5720 5717 5714 5712 5710 5708 5707 5706 5704 5703 5702 5700 5699 5697 5695 5693 5692 5691 5691 5691 5690 5690 5689 5689 5688 5688 5687 5686 5685 5687 5689 5688 5687 5684 5683 5684 5685 5685 5686 5686
5731 5728 5723 5717 5713 5710 5708 5706 5704 5703 5701 5700 5699 5698 5696 5694 5693 5691 5689 5688 5688 5687 5686 5686 5686 5685 5684 5683 5682 5681 5680 5680 5682 5684 5682 5681 5678 5678 5679 5680 5680 5680 5681
5725 5723 5720 5716 5712 5708 5705 5702 5700 5698 5697 5695 5694 5693 5691 5690 5688 5687 5686 5684 5683 5683 5682 5682 5681 5680 5679 5678 5676 5676 5675 5675 5678 5678 5677 5675 5672 5673 5674 5674 5673 5673 5674
5716 5717 5716 5714 5710 5707 5704 5700 5697 5694 5692 5691 5690 5688 5687 5688 5687 5685 5682 5680 5679 5678 5677 5676 5676 5675 5674 5672 5671 5670 5670 5672 5671 5670 5668 5665 5665 5666 5666 5666 5665 5665 5665
5710 5711 5712 5710 5707 5704 5701 5697 5696 5693 5690 5690 5689 5686 5685 5685 5683 5680 5677 5676 5675 5673 5672 5671 5670 5670 5670 5670 5667 5665 5666 5664 5664 5663 5660 5657 5658 5658 5658 5657 5656 5655 5655
5710 5708 5707 5706 5704 5702 5699 5696 5694 5692 5689 5687 5685 5683 5681 5679 5678 5676 5676 5673 5672 5670 5669 5667 5667 5665 5664 5662 5661 5660 5657 5656 5656 5654 5651 5648 5649 5650 5649 5647 5646 5645 5645
5709 5706 5704 5703 5701 5699 5697 5695 5692 5690 5687 5684 5681 5679 5677 5676 5674 5673 5672 5669 5668 5666 5664 5662 5660 5659 5657 5655 5654 5652 5650 5648 5647 5645 5640 5639 5639 5639 5638 5636 5635 5634 5633
5705 5704 5703 5701 5699 5697 5695 5693 5691 5688 5686 5682 5678 5676 5673 5672 5671 5668 5666 5663 5661 5659 5657 5655 5654 5652 5650 5648 5646 5644 5641 5640 5638 5636 5632 5628 5627 5627 5625 5624 5623 5622 5621
5702 5702 5701 5699 5697 5695 5693 5691 5689 5686 5683 5680 5676 5673 5669 5668 5665 5662 5660 5656 5654 5651 5649 5648 5646 5644 5642 5640 5638 5636 5634 5632 5630 5627 5624 5619 5616 5614 5613 5611 5610 5609 5609
5701 5700 5698 5696 5695 5692 5691 5688 5686 5683 5680 5677 5673 5669 5665 5662 5659 5656 5653 5649 5645 5643 5641 5639 5637 5636 5633 5632 5631 5628 5626 5624 5622 5618 5614 5610 5606 5603 5600 5598 5597 5597 5597
5698 5696 5696 5693 5692 5690 5688 5685 5682 5679 5676 5673 5669 5664 5660 5656 5652 5648 5645 5640 5637 5634 5633 5630 5629 5628 5625 5624 5624 5621 5619 5615 5613 5609 5605 5600 5596 5593 5590 5586 5585 5585 5585
5695 5694 5692 5691 5689 5686 5683 5680 5677 5674 5671 5668 5664 5659 5654 5649 5645 5641 5636 5632 5629 5626 5624 5621 5619 5618 5616 5614 5614 5613 5610 5607 5603 5599 5595 5590 5585 5582 5580 5577 5575 5574 5573
5691 5691 5690 5688 5685 5682 5677 5673 5669 5666 5663 5660 5656 5651 5647 5641 5637 5632 5627 5624 5620 5617 5614 5612 5610 5607 5605 5604 5605 5604 5601 5597 5594 5589 5585 5580 5575 5572 5569 5567 5566 5565 5563
5684 5685 5686 5685 5682 5677 5672 5668 5662 5657 5653 5649 5646 5641 5637 5632 5628 5624 5619 5615 5611 5609 5606 5605 5602 5599 5596 5594 5597 5597 5593 5588 5584 5579 5574 5571 5567 5561 5558 5555 5553 5552 5552
5681 5681 5682 5682 5679 5675 5671 5666 5659 5650 5643 5638 5634 5630 5626 5622 5618 5615 5611 5607 5602 5599 5597 5594 5592 5590 5585 5582 5583 5586 5587 5586 5576 5570 5564 5560 5556 5551 5547 5543 5540 5538 5537
5676 5679 5678 5678 5676 5672 5667 5659 5649 5640 5632 5626 5622 5619 5615 5612 5609 5606 5602 5598 5593 5590 5586 5583 5581 5579 5576 5571 5568 5569 5571 5574 5567 5564 5556 5550 5544 5539 5533 5529 5526 5523 5521
5673 5674 5673 5673 5671 5667 5661 5654 5650 5644 5634 5625 5617 5610 5605 5602 5599 5595 5592 5588 5584 5579 5576 5573 5569 5567 5563 5561 5556 5550 5547 5545 5545 5551 5550 5543 5535 5527 5522 5518 5514 5511 5507
5667 5666 5666 5665 5663 5660 5655 5650 5646 5640 5630 5618 5608 5602 5597 5593 5589 5585 5582 5578 5574 5570 5566 5562 5558 5555 5551 5547 5544 5540 5536 5531 5528 5526 5533 5532 5526 5519 5513 5507 5502 5498 5494
5659 5657 5657 5656 5655 5652 5649 5644 5642 5633 5622 5612 5602 5595 5589 5584 5579 5575 5572 5568 5564 5560 5555 5551 5547 5543 5538 5533 5529 5526 5522 5520 5517 5512 5513 5514 5512 5508 5502 5497 5490 5485 5480